Weather History for KIKV - June, 2013

Change the Weather History Date:

Tuesday, June 18, 2013

  Actual Average (KDSM) Record (KDSM)
Temperature  
Mean Temperature 70 °F 73 °F  
Max Temperature 82 °F 83 °F 98 °F (1953)
Min Temperature 59 °F 63 °F 49 °F (2000)
Degree Days  
Heating Degree Days 0 0  
Month to date heating degree days 14  
Since 1 June heating degree days 14  
Since 1 July heating degree days 6199  
Cooling Degree Days 6 8  
Month to date cooling degree days 106  
Year to date cooling degree days 182  
Since 1 June cooling degree days 106  
Growing Degree Days 20 (Base 50)    
Moisture  
Dew Point 57 °F    
Average Humidity 61    
Maximum Humidity 88    
Minimum Humidity 39    
Precipitation  
Precipitation 0.00 in 0.17 in 2.45 in (1998)
Month to date precipitation 2.96  
Year to date precipitation 16.14  
Snow  
Snow 0.00 in 0.00 in - ()
Month to date snowfall 0.0  
Since 1 June snowfall 0.0  
Since 1 July snowfall 35.3  
Snow Depth -    
Sea Level Pressure  
Sea Level Pressure 29.99 in    
Wind  
Wind Speed 5 mph (NNW)    
Max Wind Speed 13 mph    
Max Gust Speed 24 mph    
Visibility 10 miles    
Events      
T = Trace of Precipitation, MM = Missing Value Source: NWS Daily Summary

Daily Weather History Graph

Daily Weather History Graph

Search for Another Location

Airport or City:

Trip Planner

Search our weather history database for the weather conditions in past years. The results will help you decide how hot, cold, wet, or windy it might be!

Date:

Astronomy

Jun. 18, 2013 Rise Set
Actual Time 5:39 AM CDT 8:51 PM CDT
Civil Twilight 5:05 AM CDT 9:25 PM CDT
Nautical Twilight 4:21 AM CDT 10:09 PM CDT
Astronomical Twilight 3:28 AM CDT 11:02 PM CDT
Moon 3:33 PM CDT (6/18) 1:51 AM CDT (6/18)
Length of Visible Light 16h 20m
Length of Day
15h 12m
Waxing Gibbous, 71% of the Moon is Illuminated
Jun 18
Waxing Gibbous
Jun 23
Full
Jun 29
Last Quarter
Jul 8
New
Jul 15
First Quarter

Hourly Weather History & Observations

Time (CDT) Temp. Heat Index Dew Point Humidity Pressure Visibility Wind Dir Wind Speed Gust Speed Precip Events Conditions
12:15 AM 73.4 °F - 51.8 °F 47% 29.96 in 10.0 mi NNW 9.2 mph - N/A   Clear
12:35 AM 71.6 °F - 51.8 °F 50% 29.97 in 10.0 mi NNW 9.2 mph - N/A   Clear
12:55 AM 71.6 °F - 51.8 °F 50% 29.97 in 10.0 mi NW 8.1 mph - N/A   Clear
1:15 AM 69.8 °F - 53.6 °F 56% 29.97 in 10.0 mi NW 6.9 mph - N/A   Clear
1:35 AM 69.8 °F - 53.6 °F 56% 29.96 in 10.0 mi NW 5.8 mph - N/A   Clear
1:55 AM 66.2 °F - 53.6 °F 64% 29.96 in 10.0 mi Calm Calm - N/A   Clear
2:15 AM 64.4 °F - 55.4 °F 73% 29.96 in 10.0 mi Calm Calm - N/A   Clear
2:35 AM 62.6 °F - 55.4 °F 77% 29.95 in 10.0 mi Calm Calm - N/A   Clear
2:55 AM 62.6 °F - 55.4 °F 77% 29.96 in 10.0 mi Calm Calm - N/A   Clear
3:15 AM 60.8 °F - 55.4 °F 82% 29.96 in 10.0 mi Calm Calm - N/A   Clear
3:35 AM 60.8 °F - 55.4 °F 82% 29.97 in 10.0 mi Calm Calm - N/A   Clear
3:55 AM 60.8 °F - 55.4 °F 82% 29.96 in 10.0 mi Calm Calm - N/A   Clear
4:15 AM 60.8 °F - 55.4 °F 82% 29.97 in 10.0 mi Calm Calm - N/A   Clear
4:35 AM 60.8 °F - 55.4 °F 82% 29.97 in 10.0 mi WNW 3.5 mph - N/A   Clear
4:55 AM 64.4 °F - 55.4 °F 73% 29.97 in 10.0 mi NNW 5.8 mph - N/A   Clear
5:15 AM 62.6 °F - 55.4 °F 77% 29.98 in 10.0 mi NW 4.6 mph - N/A   Clear
5:35 AM 59.0 °F - 55.4 °F 88% 29.98 in 10.0 mi Calm Calm - N/A   Clear
5:55 AM 60.8 °F - 55.4 °F 82% 29.99 in 10.0 mi NNW 4.6 mph - N/A   Clear
6:15 AM 59.0 °F - 55.4 °F 88% 30.00 in 10.0 mi Calm Calm - N/A   Clear
6:35 AM 60.8 °F - 57.2 °F 88% 29.99 in 10.0 mi Calm Calm - N/A   Clear
6:55 AM 60.8 °F - 57.2 °F 88% 29.99 in 10.0 mi Calm Calm - N/A   Clear
7:15 AM 62.6 °F - 59.0 °F 88% 30.00 in 10.0 mi WSW 3.5 mph - N/A   Mostly Cloudy
7:35 AM 64.4 °F - 59.0 °F 83% 30.00 in 10.0 mi West 5.8 mph - N/A   Mostly Cloudy
7:55 AM 66.2 °F - 59.0 °F 78% 30.01 in 10.0 mi WNW 4.6 mph - N/A   Partly Cloudy
8:15 AM 66.2 °F - 59.0 °F 78% 30.00 in 10.0 mi WNW 4.6 mph - N/A   Scattered Clouds
8:35 AM 68.0 °F - 59.0 °F 73% 30.01 in 10.0 mi Variable 4.6 mph - N/A   Mostly Cloudy
8:55 AM 69.8 °F - 59.0 °F 68% 30.01 in 10.0 mi West 9.2 mph - N/A   Overcast
9:15 AM 71.6 °F - 60.8 °F 69% 30.02 in 10.0 mi West 9.2 mph - N/A   Scattered Clouds
9:35 AM 73.4 °F - 60.8 °F 65% 30.02 in 10.0 mi West 8.1 mph - N/A   Clear
9:55 AM 75.2 °F - 60.8 °F 61% 30.02 in 10.0 mi NW 9.2 mph - N/A   Clear
10:15 AM 77.0 °F - 60.8 °F 57% 30.01 in 10.0 mi WNW 8.1 mph - N/A   Clear
10:35 AM 77.0 °F - 60.8 °F 57% 30.02 in 10.0 mi WNW 6.9 mph - N/A   Clear
10:55 AM 78.8 °F - 60.8 °F 54% 30.02 in 10.0 mi WNW 9.2 mph - N/A   Clear
11:15 AM 78.8 °F - 60.8 °F 54% 30.02 in 10.0 mi Variable 6.9 mph - N/A   Clear
11:35 AM 78.8 °F - 57.2 °F 47% 30.01 in 10.0 mi NNW 5.8 mph 12.7 mph N/A   Clear
11:55 AM 78.8 °F - 59.0 °F 51% 30.01 in 10.0 mi NNW 12.7 mph 24.2 mph N/A   Mostly Cloudy
12:15 PM 80.6 °F 80.8 °F 57.2 °F 45% 30.01 in 10.0 mi NNW 6.9 mph - N/A   Mostly Cloudy
12:35 PM 80.6 °F 80.5 °F 55.4 °F 42% 30.01 in 10.0 mi Variable 5.8 mph - N/A   Scattered Clouds
12:55 PM 80.6 °F 80.8 °F 57.2 °F 45% 30.00 in 10.0 mi NNW 10.4 mph - N/A   Mostly Cloudy
1:15 PM 78.8 °F - 57.2 °F 47% 30.00 in 10.0 mi North 6.9 mph 12.7 mph N/A   Mostly Cloudy
1:35 PM 80.6 °F 80.5 °F 55.4 °F 42% 30.00 in 10.0 mi Variable 6.9 mph - N/A   Scattered Clouds
1:55 PM 80.6 °F 80.5 °F 55.4 °F 42% 30.00 in 10.0 mi North 6.9 mph 12.7 mph N/A   Scattered Clouds
2:15 PM 80.6 °F 80.5 °F 55.4 °F 42% 29.99 in 10.0 mi NW 6.9 mph - N/A   Partly Cloudy
2:35 PM 80.6 °F 80.5 °F 55.4 °F 42% 29.99 in 10.0 mi North 4.6 mph - N/A   Mostly Cloudy
2:55 PM 78.8 °F - 57.2 °F 47% 29.99 in 10.0 mi Calm Calm - N/A   Mostly Cloudy
3:15 PM 80.6 °F 80.5 °F 55.4 °F 42% 29.99 in 10.0 mi NNW 5.8 mph - N/A   Scattered Clouds
3:35 PM 80.6 °F 81.1 °F 59.0 °F 48% 29.99 in 10.0 mi NE 6.9 mph - N/A   Scattered Clouds
3:55 PM 78.8 °F - 59.0 °F 51% 29.99 in 10.0 mi ENE 4.6 mph - N/A   Mostly Cloudy
4:15 PM 82.4 °F 82.0 °F 57.2 °F 42% 29.98 in 10.0 mi Calm Calm - N/A   Partly Cloudy
4:35 PM 82.4 °F 81.7 °F 55.4 °F 39% 29.98 in 10.0 mi Calm Calm - N/A   Scattered Clouds
4:55 PM 78.8 °F - 59.0 °F 51% 29.98 in 10.0 mi NE 4.6 mph - N/A   Mostly Cloudy
5:15 PM 78.8 °F - 59.0 °F 51% 29.98 in 10.0 mi East 3.5 mph - N/A   Mostly Cloudy
5:35 PM 80.6 °F 80.8 °F 57.2 °F 45% 29.97 in 10.0 mi Calm Calm - N/A   Partly Cloudy
5:55 PM 80.6 °F 80.8 °F 57.2 °F 45% 29.97 in 10.0 mi Calm Calm - N/A   Scattered Clouds
6:15 PM 82.4 °F 82.0 °F 57.2 °F 42% 29.97 in 10.0 mi North 3.5 mph - N/A   Partly Cloudy
6:35 PM 82.4 °F 82.0 °F 57.2 °F 42% 29.96 in 10.0 mi NNE 4.6 mph - N/A   Partly Cloudy
6:55 PM 78.8 °F - 59.0 °F 51% 29.96 in 10.0 mi ENE 5.8 mph - N/A   Partly Cloudy
7:15 PM 78.8 °F - 59.0 °F 51% 29.97 in 10.0 mi East 4.6 mph - N/A   Scattered Clouds
7:35 PM 78.8 °F - 59.0 °F 51% 29.97 in 10.0 mi East 5.8 mph - N/A   Mostly Cloudy
7:55 PM 78.8 °F - 59.0 °F 51% 29.97 in 10.0 mi East 6.9 mph - N/A   Partly Cloudy
8:15 PM 77.0 °F - 59.0 °F 54% 29.97 in 10.0 mi East 5.8 mph - N/A   Partly Cloudy
8:35 PM 77.0 °F - 59.0 °F 54% 29.98 in 10.0 mi East 5.8 mph - N/A   Mostly Cloudy
8:55 PM 75.2 °F - 59.0 °F 57% 29.98 in 10.0 mi East 4.6 mph - N/A   Mostly Cloudy
9:15 PM 73.4 °F - 59.0 °F 61% 29.99 in 10.0 mi East 5.8 mph - N/A   Partly Cloudy
9:35 PM 73.4 °F - 59.0 °F 61% 29.99 in 10.0 mi East 5.8 mph - N/A   Clear
9:55 PM 71.6 °F - 59.0 °F 64% 30.00 in 10.0 mi Calm Calm - N/A   Scattered Clouds
10:15 PM 69.8 °F - 59.0 °F 68% 30.00 in 10.0 mi Calm Calm - N/A   Partly Cloudy
10:35 PM 69.8 °F - 59.0 °F 68% 30.00 in 10.0 mi Calm Calm - N/A   Clear
10:55 PM 68.0 °F - 60.8 °F 78% 30.00 in 10.0 mi East 4.6 mph - N/A   Clear
11:15 PM 68.0 °F - 59.0 °F 73% 30.01 in 10.0 mi Calm Calm - N/A   Clear
11:35 PM 68.0 °F - 60.8 °F 78% 30.01 in 10.0 mi Calm Calm - N/A   Clear
11:55 PM 68.0 °F - 60.8 °F 78% 30.01 in 10.0 mi Calm Calm - N/A   Clear